Location: Unspecified
(0.0000°N, 0.0000°E)
Time: 04:42:37

N. Korean satellite - Pass Details

Date: 04 January 2018
Orbit: 460 x 512 km, 97.2° (Epoch: 20 March)

Event Time Altitude Azimuth Distance (km) Brightness Sun altitude
Rises 19:04:01 0° 197° (SSW) 2,620 10.9 -13.6°
Reaches altitude 10° 19:06:41 10° 217° (SW) 1,735 10.3 -14.2°
Maximum altitude 19:09:09 17° 259° (WSW) 1,353 9.9 -14.7°
Drops below altitude 10° 19:11:37 10° 300° (WNW) 1,731 9.8 -15.3°
Sets 19:14:17 0° 321° (NW) 2,611 10.5 -15.9°
